#timestamp,LO_Frequency,Hit,StdDev 
1551128415.4,286046995.0,P
1551128435.3,286046996.9,N
1551128455.1,286046996.8,N
1551128475.9,286046998.3,N
1551128495.7,286046999.0,N
1551128515.5,286046999.1,N
1551128535.4,286047001.2,N
1551128555.2,286047002.8,N
1551128575.1,286046999.5,N
1551128576.0,286046999.5,N
1551128595.8,286046997.1,N
1551128615.6,286046997.2,N
1551128635.5,286046999.9,N
1551128655.3,286047002.6,N
1551128675.1,286047001.3,N
1551128695.9,286046999.7,N
1551128715.7,286047000.2,N
1551128735.6,286047002.2,N
1551128755.4,286046999.8,N
1551128775.2,286046998.2,N
1551128795.1,286047004.2,N
1551128796.0,286047004.2,N
1551128815.8,286047000.2,N
1551128835.6,286046998.7,N
1551128855.5,286046998.8,N
1551128875.3,286046997.0,N
1551128895.2,286046999.2,N
1551128915.9,286046998.6,N
1551128935.7,286047000.3,N
1551128955.6,286047002.0,N
1551128975.4,286047002.3,N
1551128995.3,286046999.8,N
1551129015.1,286047001.9,N
1551129016.0,286047001.9,N
1551129035.8,286047002.5,N
1551129055.7,286047002.1,N
1551129075.5,286047001.3,N
1551129095.4,286047003.0,N
1551129115.3,286047003.5,N
1551129135.1,286047003.5,N
1551129155.9,286047004.3,N
1551129175.7,286047002.0,N
1551129195.5,286047003.2,N
1551129215.4,286047004.3,N
1551129235.2,286047003.5,N
1551129255.0,286047001.5,N
1551129255.9,286047001.5,N
1551129275.8,286047003.8,N
1551129295.6,286047001.8,N
1551129315.5,286047002.1,N
1551129335.3,286047001.8,N
1551129355.1,286047002.8,N
1551129375.9,286047000.1,N
1551129395.7,286047002.5,N
1551129415.5,286047000.0,N
1551129435.4,286047002.4,N
1551129455.2,286046999.8,N
1551129475.1,286047002.5,N
1551129476.0,286047002.5,N
1551129495.8,286047002.0,N
1551129515.6,286047002.2,N
1551129535.5,286047002.8,N
1551129555.3,286047002.8,N
1551129575.1,286047000.4,N
1551129595.9,286046999.4,N
1551129615.7,286046997.2,N
1551129635.6,286046999.1,N
1551129655.4,286047000.7,N
1551129675.2,286047002.7,N
1551129695.1,286046998.5,N
1551129696.0,286046998.5,N
1551129715.8,286046999.9,N
1551129735.7,286046998.2,N
1551129755.5,286047000.0,N
1551129775.3,286047002.8,N
1551129795.2,286047002.4,N
1551129815.9,286047002.3,N
1551129835.7,286047002.6,N
1551129855.6,286047004.0,N
1551129875.4,286047001.5,N
1551129895.2,286047002.4,N
1551129915.1,286047002.0,N
1551129916.0,286047002.0,N
1551129935.8,286047002.0,N
1551129955.7,286047001.4,N
1551129975.5,286047002.7,N
1551129995.3,286047001.8,N
1551130015.2,286047005.1,Y
1551130035.0,286047002.1,P
1551130035.9,286047002.1,P
1551130055.8,286047000.3,N
1551130075.6,286047001.1,N
1551130095.4,286047002.0,N
1551130115.3,286047000.6,N
1551130135.1,286046998.9,N
1551130155.9,286046998.7,N
1551130175.7,286046998.4,N
1551130195.5,286046999.9,N
1551130215.4,286047003.2,N
1551130235.2,286047001.7,N
1551130255.0,286047002.2,N
1551130255.9,286047002.2,N
1551130275.8,286047000.1,N
1551130295.6,286046998.5,N
1551130315.5,286046999.6,N
1551130335.3,286046999.1,N
1551130355.1,286046997.7,N
1551130375.9,286046997.6,N
1551130395.7,286046997.9,N
1551130415.5,286046997.1,N
1551130435.4,286046996.5,N
1551130455.2,286046997.9,N
1551130475.1,286046994.9,N
1551130476.0,286046994.9,N
1551130495.8,286046996.9,N
1551130515.6,286046996.6,N
1551130535.5,286047000.9,N
1551130555.3,286047001.1,N
1551130575.1,286046996.9,N
1551130595.9,286046998.5,N
1551130615.7,286046999.4,N
1551130635.6,286046996.7,N
1551130655.4,286046998.7,N
1551130675.2,286047000.9,N
1551130695.1,286047000.8,N
1551130696.0,286047000.8,N
1551130715.8,286046997.0,N
1551130735.6,286046999.6,N
1551130755.5,286046998.9,N
1551130775.3,286047000.9,N
1551130795.2,286047000.0,N
1551130815.9,286047002.7,N
1551130835.7,286047002.1,N
1551130855.6,286047001.3,N
1551130875.4,286047000.6,N
1551130895.3,286046999.7,N
1551130915.1,286047001.2,N
1551130916.0,286047001.2,N
1551130935.8,286046998.6,N
1551130955.7,286046999.9,N
1551130975.5,286046999.7,N
1551130995.3,286046999.9,N
1551131015.2,286046999.9,N
1551131035.0,286046998.1,N
1551131035.9,286046998.1,N
1551131055.8,286047000.0,N
1551131075.6,286047000.1,N
1551131095.4,286047001.9,N
1551131115.3,286047001.3,N
1551131135.1,286047001.7,N
1551131155.9,286047001.9,N
1551131175.7,286047001.4,N
1551131195.5,286047003.3,N
1551131215.4,286047004.7,Y
1551131235.2,286047006.0,P
1551131255.0,286047003.0,N
1551131255.9,286047003.0,N
1551131275.8,286047002.6,N
1551131295.6,286047000.2,N
1551131315.5,286046997.2,N
1551131335.3,286046996.6,N
1551131355.1,286046997.9,N
1551131375.9,286046996.2,N
1551131395.7,286046995.3,N
1551131415.5,286046997.2,N
1551131435.4,286046998.5,N
1551131455.2,286046997.2,N
1551131475.1,286046998.8,N
1551131476.0,286046998.8,N
1551131495.8,286047000.5,N
1551131515.6,286046999.3,N
1551131535.5,286046999.0,N
1551131555.3,286046999.0,N
1551131575.2,286046998.1,N
1551131595.9,286047001.0,N
1551131615.7,286047001.0,N
1551131635.6,286046998.8,N
1551131655.4,286046998.6,N
1551131675.2,286047001.2,N
1551131695.1,286046998.1,N
1551131696.0,286046998.1,N
1551131715.8,286046998.2,N
1551131735.7,286046998.7,N
1551131755.5,286047000.8,N
1551131775.3,286047000.5,N
1551131795.2,286046999.9,N
1551131815.0,286046999.8,N
1551131815.9,286046999.8,N
1551131835.7,286047000.9,N
1551131855.6,286046998.6,N
1551131875.4,286047000.8,N
1551131895.3,286047000.8,N
1551131915.1,286047001.9,N
1551131916.0,286047001.9,N
1551131935.8,286047000.8,N
1551131955.7,286047000.8,N
1551131975.5,286046999.9,N
1551131995.3,286047000.4,N
